| time (UTC) | temp C | wind direction | speed KPH | gust KPH | rain 1hr cm | rain 24hr cm | rain mn cm | humidity % | barometer mb |
| 20260510104608 | 8 | 260 | 4.8 | 9.7 | 0.00 | 0.81 | 0.51 | 96 | 950.5 |
| 20260510103053 | 8 | 263 | 6.4 | 9.7 | 0.00 | 0.81 | 0.51 | 96 | 950.2 |
| 20260510101600 | 8 | 261 | 4.8 | 8.0 | 0.00 | 0.81 | 0.51 | 95 | 950.3 |
| 20260510100055 | 8 | 262 | 3.2 | 11.3 | 0.00 | 0.81 | 0.51 | 95 | 950.1 |
| 20260510094559 | 8 | 260 | 3.2 | 8.0 | 0.00 | 0.84 | 0.51 | 95 | 949.8 |
| 20260510093052 | 8 | 241 | 8.0 | 14.5 | 0.00 | 0.84 | 0.51 | 95 | 949.9 |
| 20260510091550 | 8 | 256 | 3.2 | 11.3 | 0.00 | 0.84 | 0.51 | 95 | 949.7 |
| 20260510090055 | 8 | 248 | 4.8 | 11.3 | 0.00 | 0.84 | 0.51 | 95 | 949.5 |
| 20260510084602 | 8 | 252 | 4.8 | 12.9 | 0.00 | 0.86 | 0.51 | 94 | 949.5 |
| 20260510083114 | 8 | 269 | 8.0 | 16.1 | 0.00 | 0.86 | 0.51 | 94 | 949.3 |
| 20260510081612 | 8 | 257 | 9.7 | 16.1 | 0.00 | 0.86 | 0.51 | 93 | 949.2 |
| 20260510080048 | 8 | 254 | 9.7 | 14.5 | 0.00 | 0.86 | 0.51 | 93 | 949.0 |
| 20260510074551 | 8 | 250 | 4.8 | 16.1 | 0.00 | 0.89 | 0.51 | 93 | 948.9 |
| 20260510073051 | 8 | 239 | 8.0 | 12.9 | 0.00 | 0.89 | 0.51 | 93 | 948.8 |
| 20260510071547 | 8 | 270 | 6.4 | 11.3 | 0.00 | 0.89 | 0.51 | 93 | 949.0 |
| 20260510070047 | 8 | 252 | 9.7 | 16.1 | 0.00 | 0.89 | 0.51 | 94 | 948.7 |
| 20260510064549 | 8 | 247 | 8.0 | 16.1 | 0.00 | 0.89 | 0.51 | 94 | 948.9 |
| 20260510063046 | 8 | 238 | 8.0 | 22.5 | 0.00 | 0.89 | 0.51 | 95 | 948.6 |
| 20260510061555 | 8 | 245 | 8.0 | 17.7 | 0.03 | 0.89 | 0.51 | 95 | 949.1 |
| 20260510060046 | 8 | 240 | 9.7 | 16.1 | 0.08 | 0.89 | 0.51 | 96 | 949.3 |
| 20260510054544 | 8 | 230 | 8.0 | 16.1 | 0.08 | 0.89 | 0.51 | 96 | 949.6 |
| 20260510053052 | 8 | 229 | 8.0 | 12.9 | 0.08 | 0.89 | 0.51 | 96 | 950.2 |
| 20260510051544 | 8 | 260 | 3.2 | 9.7 | 0.05 | 0.86 | 0.48 | 96 | 950.5 |
| 20260510050043 | 8 | 328 | 1.6 | 4.8 | 0.03 | 0.84 | 0.46 | 96 | 950.6 |
| 20260510044547 | 8 | 10 | 3.2 | 12.9 | 0.00 | 0.81 | 0.43 | 96 | 950.7 |
| 20260510043043 | 9 | 17 | 8.0 | 22.5 | 0.00 | 0.81 | 0.43 | 96 | 950.8 |
| 20260510041540 | 9 | 321 | 12.9 | 20.9 | 0.00 | 0.81 | 0.43 | 96 | 950.3 |
| 20260510040041 | 9 | 5 | 4.8 | 16.1 | 0.00 | 0.81 | 0.43 | 96 | 949.5 |
| 20260510034545 | 9 | 250 | 11.3 | 17.7 | 0.00 | 0.81 | 0.43 | 96 | 949.0 |
| 20260510033040 | 9 | 253 | 9.7 | 17.7 | 0.00 | 0.81 | 0.43 | 96 | 948.9 |
| 20260510031555 | 9 | 263 | 12.9 | 17.7 | 0.00 | 0.81 | 0.43 | 96 | 949.1 |
| 20260510030038 | 9 | 265 | 12.9 | 19.3 | 0.00 | 0.81 | 0.43 | 96 | 949.0 |
| 20260510024538 | 9 | 238 | 12.9 | 20.9 | 0.00 | 0.81 | 0.43 | 96 | 948.7 |
| 20260510023041 | 9 | 250 | 12.9 | 22.5 | 0.00 | 0.81 | 0.43 | 95 | 948.5 |
| 20260510021634 | 9 | 247 | 12.9 | 24.1 | 0.00 | 0.81 | 0.43 | 95 | 948.6 |
| 20260510020035 | 9 | 235 | 11.3 | 25.7 | 0.00 | 0.81 | 0.43 | 95 | 948.7 |
| 20260510014534 | 9 | 238 | 12.9 | 19.3 | 0.00 | 0.81 | 0.43 | 95 | 948.3 |
| 20260510013033 | 10 | 252 | 11.3 | 22.5 | 0.00 | 0.81 | 0.43 | 95 | 948.5 |
| 20260510011533 | 10 | 248 | 11.3 | 22.5 | 0.00 | 0.81 | 0.43 | 95 | 948.3 |
| 20260510010032 | 10 | 263 | 14.5 | 25.7 | 0.00 | 0.81 | 0.43 | 95 | 948.4 |
| 20260510004531 | 10 | 237 | 9.7 | 22.5 | 0.00 | 0.81 | 0.43 | 95 | 948.0 |
| 20260510003032 | 10 | 250 | 11.3 | 17.7 | 0.00 | 0.81 | 0.43 | 95 | 948.0 |
| 20260510001530 | 10 | 229 | 9.7 | 20.9 | 0.00 | 0.81 | 0.43 | 95 | 947.9 |
| 20260510000035 | 10 | 263 | 11.3 | 16.1 | 0.00 | 0.81 | 0.43 | 95 | 947.8 |
| 20260509234538 | 10 | 259 | 9.7 | 14.5 | 0.00 | 0.81 | 0.43 | 95 | 947.8 |
| 20260509233030 | 10 | 241 | 6.4 | 14.5 | 0.00 | 0.81 | 0.43 | 95 | 947.4 |
| 20260509231530 | 10 | 268 | 9.7 | 16.1 | 0.00 | 0.81 | 0.43 | 95 | 947.6 |
| 20260509230027 | 10 | 255 | 11.3 | 17.7 | 0.00 | 0.81 | 0.43 | 96 | 947.7 |
| 20260509224527 | 10 | 246 | 6.4 | 20.9 | 0.00 | 0.81 | 0.43 | 96 | 947.6 |
| 20260509223027 | 10 | 237 | 11.3 | 19.3 | 0.00 | 0.81 | 0.43 | 97 | 947.5 |
| 20260509221525 | 10 | 260 | 16.1 | 24.1 | 0.00 | 0.81 | 0.43 | 97 | 947.3 |
| 20260509220026 | 10 | 286 | 9.7 | 17.7 | 0.00 | 0.81 | 0.43 | 97 | 947.6 |
| 20260509214526 | 10 | 256 | 11.3 | 19.3 | 0.00 | 0.81 | 0.43 | 97 | 947.7 |
| 20260509213025 | 10 | 252 | 6.4 | 16.1 | 0.00 | 0.81 | 0.43 | 98 | 947.7 |
| 20260509211523 | 10 | 250 | 14.5 | 24.1 | 0.00 | 0.81 | 0.43 | 98 | 947.7 |
| 20260509210026 | 9 | 240 | 14.5 | 22.5 | 0.03 | 0.81 | 0.43 | 98 | 947.9 |
| 20260509204516 | 9 | 280 | 9.7 | 17.7 | 0.03 | 0.81 | 0.43 | 98 | 948.1 |
| 20260509203014 | 9 | 257 | 9.7 | 16.1 | 0.03 | 0.81 | 0.43 | 98 | 948.2 |
| 20260509201514 | 8 | 244 | 12.9 | 22.5 | 0.08 | 0.81 | 0.43 | 97 | 948.2 |
| 20260509200015 | 8 | 257 | 12.9 | 24.1 | 0.08 | 0.79 | 0.41 | 97 | 948.5 |
| 20260509194521 | 8 | 221 | 9.7 | 20.9 | 0.13 | 0.79 | 0.41 | 97 | 948.5 |
| 20260509193013 | 8 | 250 | 12.9 | 19.3 | 0.13 | 0.79 | 0.41 | 97 | 948.6 |
| 20260509191513 | 8 | 286 | 9.7 | 19.3 | 0.10 | 0.76 | 0.38 | 97 | 948.7 |
| 20260509190011 | 8 | 263 | 9.7 | 14.5 | 0.08 | 0.71 | 0.33 | 97 | 948.6 |
| 20260509184513 | 8 | 262 | 11.3 | 20.9 | 0.03 | 0.66 | 0.28 | 97 | 948.7 |
| 20260509183009 | 8 | 266 | 11.3 | 22.5 | 0.03 | 0.66 | 0.28 | 97 | 948.7 |
| 20260509181509 | 8 | 260 | 9.7 | 22.5 | 0.03 | 0.66 | 0.28 | 97 | 948.8 |
| 20260509180008 | 8 | 244 | 12.9 | 20.9 | 0.03 | 0.66 | 0.28 | 97 | 948.8 |
| 20260509174508 | 8 | 252 | 11.3 | 19.3 | 0.00 | 0.64 | 0.25 | 96 | 948.7 |
| 20260509173007 | 8 | 252 | 11.3 | 20.9 | 0.00 | 0.64 | 0.25 | 96 | 948.7 |
| 20260509171510 | 8 | 225 | 9.7 | 20.9 | 0.00 | 0.64 | 0.25 | 96 | 948.6 |
| 20260509170007 | 8 | 265 | 11.3 | 20.9 | 0.03 | 0.64 | 0.25 | 96 | 948.7 |
| 20260509164505 | 8 | 253 | 12.9 | 24.1 | 0.03 | 0.64 | 0.25 | 96 | 948.6 |
| 20260509163005 | 8 | 219 | 12.9 | 22.5 | 0.03 | 0.64 | 0.25 | 96 | 948.8 |
| 20260509161502 | 8 | 255 | 11.3 | 24.1 | 0.03 | 0.64 | 0.25 | 97 | 949.0 |
| 20260509160004 | 8 | 266 | 12.9 | 25.7 | 0.03 | 0.61 | 0.23 | 97 | 949.0 |
| 20260509154502 | 8 | 254 | 12.9 | 29.0 | 0.05 | 0.64 | 0.23 | 97 | 949.1 |
| 20260509153101 | 8 | 232 | 11.3 | 24.1 | 0.05 | 0.64 | 0.23 | 97 | 949.3 |
| 20260509151558 | 8 | 223 | 11.3 | 27.4 | 0.08 | 0.64 | 0.23 | 97 | 949.5 |
| 20260509150055 | 8 | 254 | 8.0 | 17.7 | 0.08 | 0.61 | 0.20 | 98 | 949.8 |
| 20260509144550 | 8 | 231 | 4.8 | 9.7 | 0.08 | 0.61 | 0.20 | 97 | 949.8 |
| 20260509143054 | 7 | 226 | 8.0 | 14.5 | 0.08 | 0.58 | 0.18 | 97 | 949.9 |
| 20260509141559 | 8 | 196 | 4.8 | 12.9 | 0.08 | 0.56 | 0.15 | 97 | 949.8 |
| 20260509140058 | 7 | 211 | 3.2 | 16.1 | 0.10 | 0.53 | 0.13 | 97 | 949.6 |
| 20260509134545 | 7 | 224 | 11.3 | 16.1 | 0.13 | 0.53 | 0.13 | 97 | 949.7 |
| 20260509133044 | 7 | 232 | 4.8 | 14.5 | 0.13 | 0.51 | 0.10 | 97 | 950.0 |
| 20260509131544 | 7 | 235 | 6.4 | 12.9 | 0.13 | 0.48 | 0.08 | 97 | 949.9 |
| 20260509130044 | 7 | 229 | 4.8 | 16.1 | 0.10 | 0.43 | 0.03 | 97 | 950.2 |
| 20260509124540 | 7 | 272 | 3.2 | 6.4 | 0.10 | 0.41 | 0.41 | 97 | 950.2 |
| 20260509123048 | 7 | 263 | 9.7 | 17.7 | 0.08 | 0.38 | 0.38 | 97 | 950.2 |
| 20260509121536 | 7 | 248 | 11.3 | 17.7 | 0.10 | 0.36 | 0.36 | 97 | 950.3 |
| 20260509120043 | 7 | 260 | 11.3 | 17.7 | 0.15 | 0.36 | 0.36 | 97 | 950.3 |
| 20260509114544 | 7 | 234 | 8.0 | 20.9 | 0.13 | 0.30 | 0.30 | 97 | 950.2 |
| 20260509113057 | 7 | 243 | 4.8 | 16.1 | 0.18 | 0.30 | 0.30 | 97 | 950.2 |
| 20260509111547 | 6 | 246 | 6.4 | 16.1 | 0.18 | 0.28 | 0.28 | 97 | 950.0 |
| 20260509110035 | 6 | 262 | 8.0 | 20.9 | 0.13 | 0.23 | 0.23 | 97 | 950.2 |